[Date Prev][Date Next][Thread Prev][Thread Next] - [Date Index][Thread Index][Author Index]
MIR & ISS Keps 12-24
- Subject: [sarex] MIR & ISS Keps 12-24
- From: "Dr Dave Larsen [ PhD ]" <doc@xxxxxxxxxxx>
- Date: Thu, 24 Dec 1998 06:19:41 -0800
MIR
1 16609U 86017A 98358.47893765 .00022196 00000-0 18887-3 0 600
2 16609 51.6533 158.0876 0009411 269.6709 131.7616 15.69458993733924
ISS
1 25544U 98067A 98358.36665057 .00008503 00000-0 12768-3 0 1558
2 25544 51.5951 356.2583 0003717 300.4482 59.6171 15.55783487 5332
----
Via the sarex mailing list at AMSAT.ORG courtesy of AMSAT-NA.
To unsubscribe, send "unsubscribe sarex" to Majordomo@amsat.org
AMSAT Home